Location: Maccacari
(45.1333°N, 11.1333°E)
Time: 02:02:31
(UTC+00:00)

Altair - Pass Details

Date: 27 January 2021
Orbit: 1501 x 1682 km, 47.2° (Epoch: 01 March)

Event Time Altitude Azimuth Distance (km) Brightness Sun altitude
Rises 05:49:08 0° 264° (W) 4,884 - -9.4°
Exits shadow 05:51:19 - 265° (W) 4,207 9.2 -9.0°
Reaches altitude 10° 05:52:16 10° 265° (W) 3,913 9.0 -8.8°
Maximum altitude 06:02:25 81° 354° (N) 1,704 7.7 -7.1°
Drops below altitude 10° 06:12:39 10° 82° (E) 3,937 10.8 -5.4°
Sets 06:15:48 0° 84° (E) 4,914 11.4 -4.9°
